Wind_Speed
29 28 27 25 25 24 25 29 33 35 37 39 39 39 40 40 40 39 38 37 36 34 32 31 30 28 27 26 25 25 24 23 23 22 20 19 18 17 17 16 15 14
30 29 27 25 25 24 24 27 31 34 36 38 39 39 39 39 39 38 37 37 36 34 33 32 30 29 28 27 27 26 25 25 24 23 21 20 19 18 17 16 15 15
29 29 28 27 26 25 24 25 29 34 35 36 37 38 38 38 37 37 36 36 36 35 34 32 31 30 29 29 28 27 27 26 25 24 22 21 20 19 18 17 16 16
29 29 29 28 27 26 25 26 30 32 32 34 36 37 37 37 36 35 36 36 36 35 34 33 32 32 31 30 29 28 28 27 26 24 23 22 21 20 19 18 17 17
28 29 29 28 28 27 27 28 31 32 32 34 36 37 37 37 36 36 36 36 36 36 35 35 34 33 32 31 30 29 29 27 26 25 24 23 22 21 20 19 19 18
27 29 29 29 29 30 29 30 34 35 35 36 36 37 37 37 37 37 37 37 37 37 37 37 36 35 34 33 31 31 30 29 28 26 25 24 23 22 21 21 20 19
29 29 30 30 30 32 32 33 35 37 38 37 36 37 38 38 38 37 37 37 37 38 39 39 38 37 36 35 34 33 31 30 29 27 26 25 24 24 23 22 21 21
30 30 32 33 33 34 36 37 38 39 39 39 38 38 39 39 39 38 38 37 38 39 39 40 39 39 37 36 35 34 32 31 30 29 28 27 26 26 25 23 23 23
32 34 36 37 37 39 40 41 41 41 41 41 41 40 40 40 40 39 39 38 39 39 40 40 40 39 38 38 36 35 33 32 31 30 29 29 28 27 26 25 24 25
36 37 39 40 41 42 42 43 43 43 43 43 42 42 41 41 40 40 40 39 39 40 40 40 40 40 39 38 37 36 35 33 32 31 31 30 30 29 27 26 26 26
38 40 41 42 43 43 44 44 44 43 44 44 44 43 43 42 41 41 41 41 41 41 40 40 41 40 40 38 38 37 35 34 33 33 32 31 31 30 28 27 27 27
39 41 42 43 44 45 45 45 44 44 44 44 44 44 43 43 43 43 43 42 42 41 41 41 41 41 40 40 39 38 36 35 34 33 33 32 31 30 29 28 28 28
41 42 43 43 44 45 44 44 44 44 44 44 44 44 43 44 44 44 44 43 42 42 41 41 41 41 41 40 39 38 37 36 35 34 33 32 31 31 30 30 29 29
42 41 42 42 43 43 43 43 43 43 43 43 43 43 44 45 45 44 44 43 42 42 41 41 41 41 41 40 39 38 37 36 35 34 33 32 32 32 31 31 30 30
40 40 40 40 41 41 42 42 42 42 42 42 43 43 44 45 45 44 44 43 42 42 41 41 42 42 42 41 39 38 37 36 35 33 33 32 32 32 32 31 31 31
38 38 38 38 40 41 41 41 42 42 42 42 43 44 45 45 45 44 44 44 43 43 42 42 43 43 42 40 38 37 36 35 34 33 32 32 32 32 32 32 32 31
37 37 37 37 39 40 41 42 41 41 42 43 44 45 45 45 45 45 45 44 44 44 44 44 44 43 41 39 37 36 36 34 33 32 32 32 33 33 32 32 32 32
36 36 37 37 39 40 41 41 41 41 42 43 44 45 45 44 44 45 45 45 45 45 44 45 44 42 40 38 37 35 34 34 33 32 32 32 32 33 32 32 32 32
37 37 38 39 40 40 40 39 40 41 43 44 45 45 44 45 45 45 45 45 45 45 45 44 43 41 39 38 36 34 32 32 32 31 31 32 32 32 32 31 32 32
37 38 39 40 40 39 39 39 40 42 43 44 44 44 44 45 45 45 45 45 46 45 45 44 43 41 39 38 36 32 29 29 30 30 30 31 31 31 31 31 32 32
35 37 38 39 39 38 39 39 41 42 43 43 43 43 44 45 44 45 46 46 46 45 45 44 43 41 39 37 34 30 27 26 28 28 29 29 29 30 30 31 31 31
32 34 35 35 36 36 38 40 41 42 43 42 41 42 42 43 44 45 46 46 45 45 44 44 43 42 40 37 34 29 26 25 25 25 27 29 30 30 30 31 31 30
29 31 33 33 33 35 38 40 41 41 41 41 41 40 39 41 43 44 45 45 45 45 44 44 43 42 40 37 34 30 27 24 22 21 22 25 27 28 28 28 29 30
29 31 33 33 34 36 38 39 39 39 40 40 41 40 40 41 43 43 42 43 44 45 45 44 44 43 40 37 35 31 27 23 21 19 19 21 24 26 27 26 27 29
29 31 33 34 36 38 38 38 38 37 37 38 39 40 39 39 40 40 39 39 42 43 44 43 43 41 39 37 35 31 27 23 20 18 18 19 22 24 25 27 29 31
29 31 33 35 37 38 38 38 37 35 34 35 36 36 35 35 36 37 37 37 38 40 41 42 41 40 38 37 35 32 28 24 20 19 18 19 21 21 20 23 29 33
Wind_Direction
213 212 213 215 216 216 216 219 220 220 220 220 220 220 221 221 222 222 220 220 221 221 220 220 218 216 215 215 215 216 216 215 215 214 212 211 212 210 210 211 207 207
212 212 213 214 216 215 215 218 221 223 224 224 224 224 224 224 224 223 222 222 222 221 221 220 218 216 215 214 214 215 215 214 215 215 213 212 212 211 211 211 209 209
211 211 213 215 215 215 215 217 222 226 227 226 226 226 225 225 226 225 224 223 223 222 221 220 218 216 215 215 214 214 215 215 216 216 214 212 212 211 211 212 212 213
212 213 214 216 217 216 216 217 221 225 224 225 227 227 227 227 227 226 225 224 223 222 221 219 218 216 215 215 214 214 216 217 218 217 214 213 213 213 213 214 215 216
215 215 216 217 218 217 216 218 221 223 223 225 227 227 228 228 227 226 225 223 221 221 220 219 217 217 215 215 214 214 216 216 218 218 216 216 216 216 216 217 219 220
217 217 218 218 218 218 217 219 223 224 224 225 226 226 227 227 227 226 225 223 221 220 219 218 217 216 215 214 213 215 216 217 219 219 218 218 219 220 220 221 224 225
219 218 219 219 219 220 220 221 224 225 225 225 225 226 227 227 226 225 225 224 221 220 219 218 217 216 215 215 214 215 216 218 221 221 222 222 222 223 223 224 227 229
223 222 223 223 222 223 224 224 225 225 225 225 225 227 228 227 226 226 225 224 222 221 220 219 218 217 217 216 216 217 218 220 222 223 224 224 224 225 226 226 229 231
227 226 227 227 226 227 227 227 227 227 227 227 227 228 228 228 227 227 226 225 223 222 221 220 219 218 218 218 218 219 221 222 224 225 226 226 227 228 229 229 231 233
229 229 229 229 229 229 229 229 229 229 228 229 228 228 228 227 227 227 226 225 223 222 221 220 220 219 219 220 220 222 223 223 225 226 228 229 231 232 232 233 234 236
231 231 230 230 230 230 230 231 230 229 229 229 228 228 227 227 226 226 225 225 223 222 222 222 222 221 221 221 222 223 223 224 226 227 229 231 234 235 236 236 238 240
232 232 231 231 231 232 231 231 231 230 229 228 228 227 226 226 226 226 225 225 225 224 224 224 223 222 222 222 222 222 223 224 226 228 230 233 236 238 239 239 240 242
234 234 233 233 233 233 232 232 232 231 230 229 228 227 226 226 226 226 226 226 225 225 225 225 224 222 222 222 222 222 223 224 226 228 230 234 236 239 241 242 243 244
235 235 235 235 234 234 233 233 232 231 230 229 228 227 227 227 226 226 226 226 225 226 226 225 223 222 222 222 222 223 224 225 227 228 230 233 237 240 242 243 245 246
236 236 236 236 234 234 233 232 232 231 230 229 228 227 227 228 228 227 225 224 224 224 224 224 223 223 223 223 223 223 224 226 227 229 231 234 237 240 242 244 246 248
235 235 235 234 233 232 232 231 230 229 229 228 227 228 227 227 226 225 224 224 223 222 222 222 223 224 226 226 226 226 226 226 227 229 232 235 237 239 242 245 247 249
233 233 233 232 231 231 230 230 228 227 227 227 227 227 226 225 224 223 223 223 223 223 223 223 225 227 227 228 228 228 229 228 228 230 232 234 237 240 242 245 248 251
231 231 230 230 229 229 228 227 226 226 226 225 225 225 224 223 222 222 222 222 222 223 224 225 227 228 227 227 226 227 229 230 229 231 233 236 238 241 243 246 249 252
229 228 228 228 228 228 227 226 225 224 224 224 224 224 223 222 222 222 222 222 222 223 224 226 228 228 227 226 225 225 226 230 232 231 233 237 239 241 244 246 248 251
229 226 226 226 226 226 225 224 224 224 224 224 223 222 221 221 221 221 222 222 223 224 225 226 228 229 228 225 223 221 221 228 234 234 235 238 241 243 246 247 248 249
232 229 227 225 224 222 222 222 223 223 223 222 222 221 221 221 221 221 222 223 224 224 224 226 227 229 228 223 221 219 216 222 233 238 239 241 243 245 247 249 250 250
239 236 232 229 225 221 221 221 221 222 222 221 221 221 221 221 221 222 223 223 223 223 223 225 227 228 227 223 220 217 215 219 227 234 238 242 245 248 250 252 252 252
246 242 239 235 230 225 224 222 221 222 221 220 219 219 219 220 220 222 223 223 223 223 223 224 226 227 226 223 221 217 215 218 222 224 229 235 240 244 246 249 250 250
251 248 244 240 235 231 229 226 224 223 221 220 219 218 219 221 221 221 222 223 223 223 223 224 226 226 226 224 222 218 215 217 220 220 222 226 233 238 240 240 243 244
256 252 247 243 239 237 234 231 229 226 223 222 220 219 220 221 221 220 221 222 223 224 225 225 226 226 226 225 223 219 215 216 218 218 220 223 228 235 239 240 242 245
262 256 251 246 243 241 239 235 232 229 226 223 221 220 220 221 221 219 219 221 222 223 224 225 225 225 226 227 225 220 216 216 217 216 218 222 227 231 236 242 247 250
Height
798 800 802 804 805 807 808 808 810 811 811 812 813 814 815 816 818 820 822 823 825 827 828 829 830 831 833 834 835 836 837 838 839 839 840 840 840 841 842 842 843 844
793 795 798 800 801 802 804 805 807 808 809 810 811 812 813 814 815 817 819 820 822 824 825 826 828 829 830 831 832 833 834 836 836 837 837 837 838 839 839 840 841 842
788 791 793 795 797 798 800 802 804 805 806 807 808 809 810 811 812 814 816 817 819 820 822 823 824 825 827 828 829 830 832 833 834 835 835 835 836 837 837 838 839 840
785 787 789 791 793 795 797 798 800 801 803 803 804 806 807 808 809 811 812 814 816 817 818 820 821 822 823 825 826 828 829 830 831 832 833 833 833 834 835 836 836 837
782 784 785 788 789 791 793 793 795 797 799 799 801 802 803 805 806 807 809 810 812 814 815 816 818 819 820 821 823 824 825 827 828 829 830 830 831 832 832 833 834 834
779 780 782 784 785 787 788 789 790 793 794 796 797 798 799 801 803 803 805 807 808 810 811 812 813 814 816 818 819 820 822 823 824 826 827 827 828 829 830 831 831 832
775 776 778 780 781 782 783 784 786 787 790 792 793 794 796 797 799 800 802 803 805 806 807 808 809 810 811 813 815 816 818 819 821 822 823 824 825 826 827 828 829 830
772 773 774 775 776 778 779 780 781 782 785 787 789 790 791 793 795 797 798 800 801 802 803 804 805 806 807 809 811 812 814 815 817 818 820 821 822 823 824 825 826 827
768 769 770 771 772 773 773 775 776 778 780 782 784 786 787 789 791 793 795 796 797 798 799 800 801 802 804 805 806 808 810 811 813 815 816 817 819 820 821 822 823 824
763 764 764 765 766 767 768 770 771 773 776 778 780 782 783 785 787 789 791 792 793 794 795 796 798 799 800 801 802 804 805 807 809 811 812 814 815 816 818 819 820 820
758 758 759 759 761 762 763 765 767 769 771 773 775 777 778 781 783 784 786 787 788 789 790 792 793 795 796 797 799 800 801 803 805 807 809 810 811 813 814 815 816 817
753 753 754 755 756 757 759 761 763 764 766 768 770 772 774 776 778 780 781 782 783 785 786 787 789 790 791 793 794 796 798 799 801 803 805 807 808 809 810 811 812 813
748 748 750 752 753 754 756 758 760 761 763 764 766 769 771 772 774 775 776 778 780 781 782 784 785 786 787 789 790 792 794 795 797 799 801 803 804 805 806 807 808 809
743 745 747 749 750 752 754 755 757 758 760 762 764 766 767 768 770 772 774 775 777 778 779 781 781 782 783 785 787 788 790 791 793 795 797 799 800 801 802 803 803 805
740 742 743 745 747 749 750 752 753 755 757 759 760 762 763 765 767 769 770 772 774 775 776 777 777 778 779 781 783 785 786 788 790 792 793 795 796 797 798 799 799 800
736 738 739 741 743 744 745 747 749 751 752 754 756 757 759 761 763 764 766 767 769 770 772 773 773 774 776 778 780 782 783 785 786 788 790 791 792 793 794 794 795 796
732 733 735 736 737 739 740 742 744 746 748 749 751 752 754 756 757 759 760 762 764 765 766 768 768 770 773 776 778 779 780 782 783 785 786 788 788 789 789 790 791 792
728 729 731 732 733 734 735 737 740 741 743 744 745 747 749 751 752 754 756 758 759 761 762 763 765 767 771 773 775 776 777 778 780 782 783 784 785 785 786 786 787 788
723 724 726 727 728 730 732 734 736 736 737 738 740 742 744 746 747 749 751 753 755 756 758 759 761 764 768 770 772 773 774 775 776 778 779 780 781 782 783 783 784 785
719 719 720 721 723 725 728 729 731 731 733 734 736 738 739 740 742 744 746 748 750 752 754 755 758 761 764 766 768 770 772 772 773 775 776 777 777 778 779 779 780 781
720 718 717 717 718 720 722 723 725 726 728 731 732 734 735 736 738 740 741 743 745 748 750 751 754 757 760 763 765 767 770 771 771 772 773 773 774 775 775 775 776 777
722 721 720 718 718 718 717 718 719 720 723 726 728 730 731 733 734 735 737 739 741 744 745 747 750 753 755 759 762 764 767 769 768 769 769 770 770 771 771 771 772 773
722 721 721 720 719 718 715 714 715 716 719 721 723 725 727 728 730 731 733 735 737 739 741 743 745 749 751 755 758 761 764 765 765 766 766 766 767 767 767 768 768 769
719 719 719 719 718 717 715 714 714 714 715 717 718 720 721 723 725 728 729 731 733 734 737 739 741 745 748 751 754 757 760 761 762 762 763 763 764 764 764 764 765 765
715 715 715 715 715 714 714 715 714 714 714 714 715 716 718 719 722 724 725 727 729 731 733 736 738 741 744 747 750 753 756 757 758 759 759 760 760 760 760 761 761 761
711 711 710 711 710 711 712 713 713 713 712 712 712 713 715 717 718 720 721 723 725 727 730 732 735 738 740 743 746 749 752 754 754 754 755 756 756 756 757 757 757 756